RH
16 9 5 4 12 19 25 37 38 35 43 58 71 79 80 72 69 79 84 88 95 98 100 99 99 98 94 89 79 68 60 53 51 40 25 19 20 22 24 27 31 31 37 38 32 43 48 35 32 32 27 26 23 19 17 17 18 19 20 22 27 30 25 20 20 18 17 17 19 17 14 12 12 11 11 12 10 7 6 5 5 4 5 4 4 4
18 11 6 5 13 23 33 42 41 36 40 56 74 79 79 70 64 72 77 80 86 92 99 100 99 100 96 94 85 68 58 54 55 53 40 25 20 22 22 25 28 28 37 43 36 42 49 37 31 34 26 20 19 16 16 16 17 18 20 21 24 29 29 23 20 19 16 16 16 15 12 10 10 9 7 6 5 4 4 4 4 4 3 3 3 4
20 13 6 6 14 26 37 42 41 38 37 49 66 73 76 71 67 73 77 80 83 86 94 98 100 99 95 95 88 74 63 57 57 64 60 40 23 20 20 22 26 26 35 45 41 39 45 39 31 33 28 20 18 16 15 15 15 17 18 20 22 27 30 26 21 18 15 15 14 13 12 10 8 7 6 4 4 4 4 3 4 3 4 4 3 4
22 15 7 6 13 25 35 38 39 40 40 49 61 66 73 73 72 75 76 81 86 89 93 96 100 99 97 98 94 82 69 60 57 65 71 57 35 25 21 24 29 28 32 43 44 38 42 43 32 31 32 25 21 17 15 14 13 15 16 18 21 25 28 26 21 17 15 14 12 12 11 9 7 7 6 5 4 5 5 4 4 4 4 4 4 4
22 16 8 6 13 24 33 37 39 40 42 55 66 66 68 69 70 71 71 78 85 92 95 96 99 100 99 100 97 90 79 70 64 63 69 67 52 38 29 27 30 31 32 38 44 39 42 46 33 28 33 29 24 19 16 15 13 13 14 16 20 24 26 26 21 17 15 12 10 10 9 8 7 6 5 5 4 4 4 4 4 4 4 4 4 4
23 17 10 7 11 19 28 35 38 40 48 62 69 65 64 65 64 64 68 76 82 89 97 99 99 99 100 100 98 94 85 78 73 66 65 69 65 52 39 32 32 35 36 36 39 38 40 44 33 28 34 33 29 23 19 18 14 12 13 13 17 22 25 25 22 17 15 13 10 8 7 7 6 6 5 5 4 4 4 4 4 4 5 5 5 5
23 18 11 6 16 27 25 30 37 40 52 69 71 62 61 63 62 62 66 75 80 84 94 98 99 99 100 99 99 97 88 79 74 67 66 71 70 61 49 41 41 43 41 38 38 36 37 41 32 27 36 38 34 29 24 21 17 13 12 12 14 20 24 24 23 19 15 14 12 9 7 6 6 6 5 5 4 4 4 4 4 5 5 5 5 5
23 19 12 5 20 36 27 24 35 38 50 75 79 63 58 60 59 57 62 72 78 80 86 93 99 100 99 100 100 99 94 83 71 62 64 73 72 66 59 49 48 53 49 45 46 39 34 38 32 25 33 41 37 33 29 23 20 16 13 13 12 16 22 24 24 21 18 15 13 11 8 6 6 6 6 5 5 5 4 5 5 5 6 5 6 6
23 16 13 7 11 23 22 22 31 34 44 68 78 66 59 61 59 55 57 67 72 75 81 87 95 100 99 100 99 100 100 90 77 63 59 68 70 66 65 55 51 58 57 51 50 42 33 35 34 24 28 39 38 33 30 25 23 20 16 14 12 13 19 23 25 23 20 17 14 12 10 8 7 6 6 6 5 5 5 5 5 5 6 6 6 5
24 17 14 12 9 15 22 25 27 31 41 58 68 64 61 65 67 62 60 63 64 68 77 82 88 96 99 100 99 99 100 93 85 76 65 65 67 63 64 61 54 57 60 56 49 43 35 35 34 26 24 34 37 32 30 28 25 23 21 17 13 12 14 19 24 24 22 21 16 14 12 10 8 7 7 7 6 6 5 5 6 6 6 6 5 5
24 21 21 22 18 19 28 38 41 40 45 62 72 70 68 72 74 71 65 61 59 61 70 79 83 88 94 100 100 98 98 96 92 88 75 64 62 60 59 62 60 58 58 54 48 45 40 36 33 27 22 27 35 34 31 30 29 27 25 22 17 13 12 13 18 22 23 23 20 17 16 14 11 9 8 8 7 6 6 6 6 6 5 5 5 4
33 34 40 42 33 31 46 72 79 61 51 63 77 75 74 76 74 74 71 66 69 69 67 76 83 87 92 97 100 99 98 99 97 94 83 67 60 59 57 57 61 63 56 49 46 43 43 40 34 29 24 22 29 33 33 33 31 30 29 26 21 17 14 12 12 15 18 20 20 18 17 16 13 11 10 9 8 7 7 7 6 6 5 5 5 5
54 53 56 61 57 48 57 82 90 77 63 60 67 68 70 77 74 76 79 77 83 83 76 82 90 95 97 94 95 99 99 99 99 98 91 74 63 64 61 55 60 67 59 49 46 41 42 46 39 31 28 24 24 28 35 36 32 31 32 29 26 22 19 16 12 12 12 13 16 16 16 15 14 13 12 10 10 9 8 7 6 7 7 5 5 6
61 58 57 69 83 65 42 50 62 70 72 67 72 71 68 77 77 77 85 85 87 87 84 88 91 95 99 94 92 96 99 99 99 100 95 79 68 70 69 59 58 69 67 56 50 42 41 47 44 36 30 27 25 24 31 37 31 30 31 29 29 26 22 22 16 13 13 11 11 13 13 14 13 13 12 10 10 9 9 9 8 9 9 6 6 7
63 65 56 65 88 70 30 29 49 67 78 83 90 84 73 78 80 79 85 86 86 85 85 87 87 92 98 97 96 97 99 101 99 100 99 89 80 76 72 62 56 64 69 60 52 44 41 46 48 44 36 30 29 26 26 31 28 26 28 28 29 27 24 26 22 17 16 13 9 9 10 11 11 10 10 9 8 9 11 11 10 12 11 7 7 9
75 75 59 59 78 74 43 34 56 81 90 89 88 79 74 77 78 78 78 80 87 87 85 86 86 90 94 96 99 97 96 99 98 98 97 94 90 82 73 63 53 57 66 60 49 42 39 42 47 51 47 39 35 32 28 27 25 24 25 26 28 27 24 26 27 22 19 16 12 10 10 8 7 7 9 11 10 9 11 12 14 17 15 9 8 11
84 79 65 60 68 78 63 43 58 86 89 84 81 75 74 75 75 73 69 77 92 91 87 88 87 87 89 91 94 92 92 94 96 97 94 90 87 80 72 62 51 54 64 58 47 44 42 40 45 51 52 45 38 36 33 27 24 23 21 21 23 25 23 22 26 25 23 22 18 16 16 13 9 7 9 12 12 10 10 11 15 18 13 10 11 14
85 79 73 70 72 77 62 43 61 85 83 80 81 75 71 71 72 67 62 73 90 91 86 86 87 86 85 86 86 86 88 88 90 93 95 92 81 72 68 60 50 51 57 55 51 53 50 45 47 51 53 47 36 34 35 29 24 23 20 17 18 21 20 20 24 26 27 29 22 17 19 21 20 15 12 11 11 9 9 12 16 15 11 11 15 16
80 79 74 70 75 74 55 51 75 91 90 82 72 67 69 72 72 67 64 71 79 83 84 80 80 80 79 81 80 81 82 80 81 85 90 93 82 70 67 58 49 49 53 58 59 58 55 50 50 52 53 48 36 31 33 31 26 23 20 18 17 18 18 19 22 23 26 31 27 18 16 20 24 20 15 14 13 10 9 12 16 15 12 12 13 15
71 80 73 59 69 76 65 71 86 92 94 83 65 65 69 67 67 67 71 73 72 75 77 73 76 76 74 76 75 76 76 72 74 78 84 93 87 78 74 61 50 50 56 64 62 56 56 53 50 51 52 51 43 34 31 31 30 28 24 22 19 18 18 19 20 19 18 21 24 19 15 17 20 17 14 15 15 13 11 11 12 13 12 10 11 13
73 82 77 61 67 77 74 80 88 91 93 83 70 65 59 56 65 71 73 72 68 69 68 66 73 73 70 71 70 70 70 69 74 80 88 96 91 84 81 71 59 52 54 65 63 55 56 55 51 51 50 49 48 40 32 30 32 32 28 25 22 19 19 19 19 18 15 13 14 14 12 13 14 14 13 15 15 14 13 11 11 13 12 10 10 10
78 82 82 73 74 77 74 76 83 89 88 80 73 65 53 54 72 83 80 71 63 62 62 60 63 67 67 67 65 63 63 66 78 91 97 98 93 87 87 83 73 59 53 61 64 54 51 54 54 54 50 47 46 42 36 29 29 31 27 23 21 18 17 18 17 17 18 16 13 10 9 9 10 10 11 14 15 15 13 13 14 15 14 11 9 9
74 81 83 77 77 74 69 66 70 80 85 81 81 75 57 48 63 80 82 75 66 59 59 59 61 67 72 70 67 64 61 63 75 90 98 100 99 96 94 91 85 73 58 55 61 56 50 50 52 53 53 50 46 44 40 33 31 32 27 20 19 17 16 16 15 15 17 18 18 14 10 9 8 9 10 11 12 13 13 14 15 16 14 10 9 9
73 82 77 69 68 64 60 59 61 75 88 88 85 76 61 58 71 80 77 73 71 65 65 68 72 76 75 73 73 69 63 61 67 78 88 94 98 99 98 96 93 86 68 53 54 56 51 48 47 48 49 47 47 49 46 38 34 34 30 21 18 18 16 15 14 14 14 15 17 19 17 14 10 9 9 9 10 10 11 13 14 14 13 10 8 9
80 83 76 68 67 60 56 56 59 70 84 90 86 74 72 82 83 73 61 55 59 66 71 74 80 82 77 76 78 73 65 62 65 71 76 82 88 89 88 87 90 93 82 69 66 59 49 46 46 46 45 39 41 49 50 44 36 33 32 25 19 18 16 15 14 14 13 13 14 16 18 19 17 14 11 10 10 10 10 11 12 11 11 9 8 7
85 80 75 72 71 64 58 57 58 57 59 67 72 65 67 73 61 48 46 41 41 53 64 72 82 84 81 81 81 76 70 65 66 70 71 74 79 81 83 84 89 97 94 88 87 74 56 52 49 47 47 41 37 41 46 47 39 33 32 26 22 22 20 16 14 13 13 12 12 13 14 17 20 20 18 14 12 10 9 10 10 8 8 9 9 7
83 76 75 73 70 67 64 61 56 49 46 51 52 47 46 48 41 36 36 35 38 44 50 61 74 78 80 83 82 77 71 65 68 73 72 71 71 73 84 93 96 99 98 96 96 85 72 67 57 48 50 49 43 40 40 43 41 39 37 29 22 22 21 17 14 12 12 11 11 11 11 12 16 19 22 22 19 17 14 11 10 8 7 8 9 7
79 74 75 73 71 71 69 62 54 50 53 52 45 42 44 44 42 39 35 35 41 43 45 54 61 65 70 75 77 77 71 63 65 70 71 70 68 67 80 96 100 99 98 99 97 86 77 76 73 67 63 56 51 47 41 38 40 41 41 34 22 18 19 19 15 12 11 10 10 11 10 10 11 12 17 21 23 24 23 20 17 14 12 10 8 7
78 71 75 76 76 76 69 59 55 55 55 52 45 45 49 47 42 41 39 39 45 50 53 55 52 52 57 60 63 67 66 60 59 61 62 64 67 69 77 90 98 98 99 100 98 89 82 86 92 94 87 73 63 58 49 41 40 41 42 36 26 21 23 24 21 17 15 13 9 9 10 9 9 9 10 14 18 21 24 25 23 22 20 18 14 10
81 72 77 80 77 78 70 60 62 61 50 47 49 49 51 48 42 40 40 43 51 58 55 47 42 44 50 52 52 53 54 56 58 57 55 57 65 72 77 82 86 90 93 96 99 98 95 97 99 99 99 91 80 72 61 50 44 43 42 38 33 31 29 26 20 15 19 25 20 11 8 8 8 9 8 8 11 13 17 20 21 22 22 22 21 18
84 76 83 86 84 88 83 71 70 65 51 48 51 51 51 52 51 50 51 50 52 55 53 46 40 42 46 48 47 46 47 52 57 57 57 63 71 75 77 79 80 83 84 82 90 98 98 100 101 97 99 98 92 86 74 59 52 48 41 36 36 39 37 28 18 14 26 41 41 27 14 9 7 8 8 8 8 9 11 12 14 16 17 18 18 19
82 82 87 91 94 96 90 78 66 59 57 58 54 49 49 54 57 57 57 57 53 51 52 48 42 43 45 45 44 45 45 47 53 56 59 70 79 81 81 79 75 76 76 71 79 88 89 93 98 97 99 98 97 97 87 69 61 55 45 39 38 43 46 32 15 15 28 43 50 43 27 15 11 9 9 9 9 9 10 11 11 11 11 13 13 14
69 80 84 89 96 96 89 80 66 58 61 58 50 49 53 57 61 61 58 57 55 52 49 45 42 43 42 40 42 46 49 52 57 61 62 69 79 83 85 82 75 78 82 79 79 84 85 91 97 97 100 99 99 102 97 84 73 63 62 64 53 44 46 41 30 29 28 27 37 45 36 22 15 14 14 13 13 12 11 10 11 11 10 10 10 10
53 65 71 77 88 92 86 79 67 62 66 56 41 41 49 55 61 59 53 52 50 47 44 41 39 37 37 39 41 48 57 61 65 67 66 72 82 83 81 81 79 85 93 90 84 82 79 84 92 96 99 100 98 98 98 96 87 74 76 88 78 58 54 59 65 68 53 32 33 48 51 38 22 16 18 17 13 13 14 14 13 14 13 12 10 10
46 52 60 70 82 87 83 79 70 66 71 67 52 45 51 63 69 61 51 50 48 42 37 36 34 35 45 50 44 47 58 62 63 63 60 67 79 80 76 76 74 78 86 84 82 84 81 80 87 93 96 98 98 97 97 98 95 85 85 94 95 85 77 73 75 81 76 62 55 62 73 69 46 28 25 25 20 15 14 15 17 18 18 16 12 11
46 46 51 61 75 78 74 76 76 68 66 69 70 69 72 81 84 74 61 56 52 46 39 34 31 37 50 51 39 42 56 59 58 57 54 59 69 70 70 70 68 71 76 77 82 88 87 87 91 93 95 97 98 99 98 98 97 95 94 96 97 93 85 77 73 76 80 81 77 78 87 92 81 65 56 57 58 51 40 34 30 27 27 26 24 26
49 45 44 50 62 67 65 70 75 74 68 65 68 75 82 88 87 79 72 66 58 50 45 38 33 38 48 44 30 29 41 50 56 60 60 62 68 71 70 68 65 65 68 79 89 90 88 93 97 96 97 99 98 99 100 100 100 99 98 97 98 96 90 85 84 84 85 87 89 90 93 97 99 94 82 75 75 77 74 67 55 43 37 35 35 43
48 45 43 50 56 54 55 62 65 67 68 65 63 67 74 83 84 77 73 72 66 56 50 45 41 43 45 40 27 18 20 31 45 57 64 66 69 75 77 72 66 61 62 74 86 87 89 96 100 99 98 95 93 95 98 99 99 99 97 94 95 97 96 94 92 92 92 95 95 95 95 98 100 99 93 84 77 77 84 85 77 66 58 50 43 44
43 44 44 54 60 53 54 67 71 66 63 60 61 64 65 70 78 77 73 72 70 65 59 53 50 49 49 46 39 31 30 35 38 43 52 60 65 70 74 73 70 68 70 74 76 79 85 88 88 91 95 94 92 95 99 99 96 95 94 92 93 96 97 97 96 96 97 99 97 94 95 99 100 98 98 96 86 80 82 85 81 74 70 65 56 48
36 40 41 51 61 55 53 68 78 73 67 64 65 67 64 61 66 74 75 72 69 68 65 60 56 54 55 56 54 49 50 55 54 46 44 52 61 63 63 64 66 70 77 81 78 77 79 79 79 80 80 80 81 84 91 94 91 88 88 88 91 94 93 95 97 97 96 95 94 95 97 99 100 99 99 98 93 87 85 84 81 76 75 79 76 63
33 33 35 44 56 53 48 60 74 73 68 71 72 70 66 60 59 65 72 72 69 68 66 65 63 61 62 65 64 58 53 54 57 54 47 49 56 58 56 56 56 57 64 74 81 84 83 81 81 79 76 76 77 81 88 91 89 87 85 82 84 86 87 91 92 89 90 91 90 93 96 95 96 98 99 99 98 96 91 86 87 87 87 90 91 82
36 30 30 37 51 59 59 65 78 81 75 73 72 65 58 56 59 64 68 69 70 70 68 68 68 67 68 68 67 65 59 54 54 56 55 54 52 51 51 51 50 48 50 60 75 87 93 92 88 84 82 79 77 82 90 90 87 86 82 76 77 81 85 88 83 78 83 90 92 94 95 92 90 90 94 96 97 98 97 95 95 95 93 94 97 95
39 35 31 29 35 49 59 65 76 86 87 84 81 73 63 59 62 66 66 65 68 71 70 70 70 69 70 69 67 66 66 63 60 60 62 60 54 47 44 43 46 49 53 60 68 76 84 89 86 81 76 70 67 74 83 84 79 76 73 69 69 72 78 82 77 72 76 82 86 87 88 88 86 85 88 92 92 93 95 97 99 98 95 94 97 99
39 40 39 36 30 31 41 49 57 68 77 82 87 88 83 78 74 73 70 68 69 72 72 71 72 71 70 70 68 65 64 63 60 57 56 57 57 53 49 47 50 54 60 67 72 76 78 77 74 70 65 59 58 63 71 73 69 66 65 61 53 49 51 53 50 47 48 52 57 59 64 73 78 78 80 83 83 82 84 88 92 94 92 93 96 98
31 37 43 47 42 34 31 32 34 42 52 60 68 74 77 79 81 81 80 78 77 78 78 76 75 74 73 71 69 67 65 62 58 52 49 51 56 60 60 60 63 69 75 78 78 78 78 75 71 68 61 53 49 48 51 54 56 56 55 52 42 32 27 25 21 18 19 22 25 28 33 41 46 45 50 59 64 72 84 92 92 90 90 93 98 99
28 31 37 46 50 47 41 35 31 35 41 46 51 54 57 64 72 79 82 82 81 80 80 78 76 75 74 73 71 70 69 68 64 58 52 49 52 58 61 61 63 71 82 86 80 73 67 63 62 62 60 55 50 46 43 43 43 43 42 39 34 27 20 17 13 10 9 9 11 13 14 21 30 37 44 51 56 66 85 98 98 95 95 96 97 96
37 33 30 36 43 47 49 49 47 47 46 44 43 44 46 52 60 67 73 75 75 75 76 76 75 74 73 72 71 70 69 68 67 64 60 54 53 56 60 60 57 58 64 70 71 68 62 54 48 47 49 50 50 49 47 45 42 40 37 34 31 24 19 17 14 10 9 8 11 14 12 17 39 59 64 65 67 72 79 84 84 86 91 93 89 84
46 43 33 26 28 32 40 48 53 52 51 50 49 47 45 47 50 54 60 63 62 63 65 68 69 69 69 68 69 69 68 66 65 64 62 57 54 54 56 59 58 55 54 53 54 54 52 48 44 41 39 41 42 43 43 43 43 43 40 37 34 28 22 20 17 15 15 14 19 27 28 31 49 69 72 71 76 79 78 75 71 69 71 72 67 61
43 46 40 29 22 20 23 31 38 42 45 50 52 50 48 47 47 48 50 52 53 53 55 57 58 59 59 60 61 62 63 64 64 64 63 61 57 55 54 54 54 54 53 51 48 46 44 43 44 44 42 41 41 41 41 42 44 44 43 42 39 35 30 27 24 21 22 24 29 40 50 56 66 77 79 79 82 82 80 78 74 68 64 60 55 51
29 37 42 37 29 23 20 22 28 33 38 41 42 42 42 42 43 44 43 44 46 46 47 48 48 47 47 47 48 49 50 51 52 53 54 56 57 56 56 55 54 53 52 51 49 47 45 43 42 42 42 42 42 42 42 44 47 49 50 48 46 43 39 36 32 28 26 27 30 37 50 66 79 87 88 89 91 89 84 79 73 66 61 57 52 49
23 30 35 35 32 30 27 25 25 27 31 33 33 32 32 31 32 34 35 36 38 39 39 40 41 40 39 39 38 39 39 39 39 39 40 41 43 45 46 48 49 49 49 48 47 47 46 45 43 41 42 43 45 46 46 47 50 54 57 56 54 51 47 42 40 37 34 32 31 29 33 45 63 79 87 89 89 87 83 82 79 73 65 58 52 48
Wind_Speed
32 33 32 31 30 30 29 27 26 25 22 20 19 17 14 14 14 12 11 9 9 12 18 22 23 21 21 21 21 19 18 19 18 17 15 14 14 14 14 13 13 13 13 13 12 10 7 7 9 10 13 13 13 13 12 12 11 11 13 15 16 16 16 16 16 16 17 18 19 21 23 25 26 26 26 27 26 25 25 24 23 23 22 21 20 19
32 31 29 29 31 32 32 30 28 26 24 21 18 17 15 15 15 13 12 11 10 11 18 22 23 23 23 24 23 20 18 19 19 18 16 15 14 14 14 14 13 12 13 13 12 11 9 8 9 10 12 13 13 14 13 13 13 12 13 14 15 16 15 15 16 16 17 19 20 22 24 25 26 25 25 25 24 24 23 22 22 21 20 19 18 17
30 29 29 30 32 34 35 33 30 27 24 21 19 18 17 15 16 14 13 12 10 10 14 20 24 23 23 26 25 21 19 20 20 20 18 16 15 14 14 14 13 12 13 13 12 12 10 9 9 10 12 13 13 14 14 14 14 14 14 14 15 16 15 15 15 16 18 19 21 22 23 24 24 24 23 23 23 22 22 21 20 19 18 17 16 15
27 27 28 30 33 35 36 35 32 27 23 21 20 19 16 15 16 16 14 12 9 9 12 18 23 24 27 29 27 22 21 21 22 21 20 18 17 16 15 15 14 13 13 13 12 12 11 10 9 10 12 13 13 14 14 14 15 15 15 15 16 16 16 15 15 16 18 20 22 22 22 22 22 22 22 21 21 20 20 19 19 18 16 16 15 14
24 26 28 30 32 34 35 35 32 27 24 21 19 17 16 17 17 16 15 13 9 8 11 18 24 27 31 31 28 25 23 23 23 22 21 20 20 18 17 16 15 14 14 14 12 12 13 11 10 11 12 12 13 14 14 14 15 15 16 16 17 17 16 16 15 16 17 19 21 22 22 21 21 20 20 20 19 19 18 17 16 15 15 14 13 12
25 27 29 30 31 32 33 34 32 28 24 20 18 17 16 17 16 14 14 14 12 9 8 16 25 29 32 32 29 26 25 24 24 23 22 21 20 19 17 16 16 15 14 14 13 13 14 12 11 12 12 12 12 13 14 14 15 16 16 17 17 17 16 16 16 16 16 18 19 20 21 20 20 19 19 18 18 17 16 15 15 14 13 12 11 10
25 25 28 31 30 28 29 32 32 29 25 19 18 18 17 17 16 14 14 14 15 13 8 11 23 31 33 33 31 27 26 26 25 24 23 22 21 19 17 17 16 15 14 13 13 13 14 13 13 13 13 12 12 12 14 14 14 15 16 17 18 18 17 16 16 16 16 17 18 18 18 18 18 18 18 17 16 16 15 14 13 12 12 11 10 9
24 23 27 32 30 26 27 30 30 29 25 19 17 19 19 18 17 16 16 15 14 15 12 9 17 31 35 34 33 32 29 27 26 25 24 23 21 19 18 18 17 16 15 14 14 13 13 14 14 14 15 13 12 12 13 14 14 15 16 17 18 18 19 17 16 16 16 16 16 17 17 16 16 16 16 16 15 15 14 13 12 11 11 10 9 8
23 22 26 30 31 27 24 26 28 29 27 21 19 19 19 19 18 17 17 15 14 14 13 9 11 22 32 34 34 34 32 29 26 25 25 23 22 20 19 18 18 17 17 16 16 15 15 15 15 14 15 14 13 13 13 14 14 14 15 16 17 18 19 18 16 15 15 15 15 16 16 16 15 15 14 14 14 13 12 11 11 10 9 8 8 7
24 23 25 28 30 27 21 22 26 28 27 24 21 21 20 18 16 16 16 15 15 14 13 11 9 12 22 31 35 36 34 31 27 24 25 24 23 22 20 19 19 18 18 18 18 17 17 16 16 15 15 15 13 12 12 13 14 14 14 15 16 17 18 18 17 16 15 15 15 15 15 14 14 14 13 13 12 12 11 10 10 9 8 7 6 6
25 24 24 24 25 25 23 23 26 27 27 25 23 22 20 17 14 15 16 16 16 15 13 13 12 11 13 20 30 35 35 32 29 26 24 24 24 23 22 21 19 18 18 18 18 19 18 18 17 16 16 15 14 12 12 13 13 13 14 14 15 16 17 18 18 17 15 14 14 14 13 13 13 13 12 12 11 11 10 9 9 8 7 6 5 5
25 24 23 22 22 25 26 26 25 27 29 27 24 21 19 17 14 13 13 14 13 13 13 13 13 13 11 11 18 28 34 35 33 28 24 24 24 23 23 22 20 19 20 20 19 19 19 18 17 17 16 16 15 13 13 13 13 13 14 14 14 15 15 16 18 18 16 15 15 14 13 13 12 11 11 11 11 10 9 8 8 7 6 5 5 5
27 25 23 22 21 26 29 28 27 27 28 27 25 22 19 17 15 13 12 11 10 10 13 14 12 11 11 10 10 17 29 38 37 30 26 26 25 24 23 22 22 21 20 20 20 20 19 18 17 16 16 16 15 15 13 13 13 13 13 14 14 14 14 15 16 17 17 16 15 14 14 13 12 12 11 11 10 9 9 8 7 6 5 5 5 5
25 26 26 23 21 26 31 32 30 28 26 24 21 20 21 18 15 14 12 10 10 11 12 13 13 10 10 11 10 11 20 35 39 32 29 28 26 25 24 23 23 23 21 20 20 20 20 20 18 17 17 17 16 15 15 13 13 13 13 13 14 14 14 14 15 15 16 16 16 15 14 14 14 13 12 11 11 10 9 8 7 6 5 5 5 5
24 24 25 25 23 26 31 31 29 26 24 22 19 20 21 19 16 15 13 11 10 11 11 12 12 12 11 11 11 10 13 27 40 38 33 31 29 27 26 26 25 25 22 21 21 21 21 21 20 18 18 18 16 16 16 15 14 14 13 13 14 14 14 14 14 14 14 15 15 15 14 14 14 13 13 12 11 10 9 8 7 6 5 5 5 4
24 20 21 22 18 21 26 29 28 26 26 24 21 21 20 17 16 16 15 13 11 10 11 11 11 11 12 10 10 10 8 16 32 38 36 34 34 32 29 27 26 25 24 22 22 22 22 22 22 20 19 18 17 17 17 17 16 15 14 14 13 14 14 14 15 14 14 13 14 15 15 14 13 12 12 12 12 11 10 9 8 7 6 6 5 4
24 19 20 18 12 17 24 26 27 28 27 25 21 19 19 18 17 18 18 14 11 10 9 9 9 10 11 10 9 9 7 9 20 30 34 34 36 36 32 29 27 26 24 23 22 22 23 22 21 21 20 19 18 18 18 18 18 16 15 15 14 13 13 14 14 14 14 13 13 14 14 14 13 13 12 12 12 11 11 10 9 7 6 6 5 5
24 21 23 20 15 20 28 28 28 27 25 24 22 19 20 20 19 20 20 17 13 11 7 5 6 8 9 9 9 9 9 9 13 23 31 36 37 35 32 29 27 26 25 24 23 23 23 23 22 21 21 20 20 20 20 20 19 18 17 15 15 14 13 13 14 14 14 15 14 14 14 14 13 13 12 12 11 11 11 10 9 8 7 6 6 6
27 21 20 22 19 19 28 33 32 25 20 22 23 22 19 17 17 18 18 17 16 14 9 5 5 6 7 7 7 8 9 10 13 20 31 38 37 33 31 29 27 27 25 25 25 24 23 23 22 22 21 20 20 21 21 21 20 19 18 17 16 15 14 13 13 13 14 15 15 14 14 14 14 14 12 11 11 11 10 10 9 9 7 7 7 7
30 22 19 22 18 15 23 31 33 28 21 20 22 21 18 15 16 16 15 16 17 15 13 9 7 6 6 5 4 6 7 8 12 20 31 38 37 33 32 31 28 27 26 26 26 25 23 23 22 22 22 21 20 21 21 21 20 20 19 18 18 17 15 14 14 13 14 14 15 15 15 15 15 14 13 12 11 10 10 10 10 9 8 7 7 8
29 25 23 23 20 17 18 20 26 29 24 21 20 17 16 16 16 16 15 17 16 14 14 12 8 6 6 5 4 4 4 5 7 18 33 38 37 35 34 32 28 26 26 26 26 26 24 24 23 23 23 22 21 21 21 21 21 21 20 19 19 18 17 17 15 14 14 14 14 15 16 16 15 15 14 13 12 11 11 10 10 9 9 9 8 9
29 28 27 25 23 22 19 13 19 27 24 20 19 15 15 15 15 15 14 16 16 15 15 13 9 8 7 5 4 3 3 4 2 16 34 37 34 33 34 33 29 27 27 26 26 26 26 25 24 23 23 22 21 21 21 21 21 22 21 21 20 19 19 18 17 16 14 14 14 15 15 16 16 15 15 14 14 13 12 11 11 10 11 11 10 10
31 31 28 27 25 24 21 17 23 26 23 21 19 14 14 13 12 13 11 11 13 14 14 11 9 9 6 4 3 2 1 1 4 12 26 31 31 31 33 34 32 29 28 28 28 27 27 26 25 24 23 22 21 21 21 21 21 22 22 22 21 21 20 19 18 17 16 16 15 15 15 16 16 16 16 15 15 15 14 13 12 12 12 12 12 12
32 32 28 27 27 25 23 24 28 26 23 24 20 15 14 11 10 11 10 9 10 11 11 9 7 7 4 3 2 2 3 3 4 8 14 20 25 27 29 31 32 32 30 29 29 29 27 27 26 24 23 22 21 22 22 22 22 22 22 22 22 22 22 21 20 19 18 18 17 17 16 16 16 16 16 16 16 15 15 15 14 14 14 14 13 13
33 33 28 27 27 23 22 25 27 25 26 27 24 21 19 15 12 11 11 11 11 10 9 9 8 6 4 3 3 3 4 5 5 7 9 11 14 17 21 27 32 35 34 30 29 29 28 26 25 23 22 21 21 22 22 22 22 21 21 22 22 23 23 22 22 21 20 20 19 19 18 17 17 17 17 17 16 16 16 16 16 16 15 15 15 14
35 34 29 28 28 24 23 24 21 20 26 30 31 29 26 22 19 16 13 11 11 10 9 8 8 7 6 6 5 5 5 4 3 4 5 6 8 11 16 23 31 37 36 32 30 28 27 26 25 23 23 22 21 21 22 22 22 21 21 22 23 23 23 23 22 22 22 21 21 21 20 19 18 18 17 17 17 16 16 16 16 16 17 17 16 15
35 34 31 31 30 26 26 23 18 20 27 30 31 29 24 22 21 20 19 15 12 13 12 9 9 9 8 9 8 6 6 4 3 4 6 8 10 10 11 19 33 39 36 34 32 28 27 26 25 24 23 23 22 21 21 22 22 21 21 22 23 23 23 23 23 23 23 23 22 22 22 21 21 20 19 18 17 17 16 16 16 16 16 17 17 16
35 35 33 31 29 27 26 24 22 26 31 30 27 26 23 22 22 21 21 19 16 15 13 11 12 13 13 13 12 9 6 4 5 7 10 10 11 10 6 12 31 40 37 35 33 28 27 28 28 26 25 25 24 23 22 21 22 22 22 22 22 22 22 22 22 22 23 23 23 23 23 23 23 22 21 20 19 18 17 17 16 16 16 16 16 16
36 37 35 32 31 31 31 29 28 30 33 30 26 26 26 25 24 23 22 21 18 16 14 15 17 18 18 16 15 12 9 7 7 9 10 10 10 10 7 10 21 29 30 31 31 29 27 28 29 29 28 27 24 23 23 23 22 22 21 21 20 19 20 20 20 20 21 22 23 24 24 24 24 24 23 22 21 20 20 19 18 17 17 17 17 17
36 38 36 34 35 34 33 33 30 28 33 33 30 29 28 26 24 23 23 23 21 18 19 21 23 21 18 16 14 12 11 10 10 10 10 9 10 11 12 13 15 18 21 24 26 27 27 29 32 31 31 28 25 24 24 23 23 22 22 21 19 20 20 20 20 21 20 21 22 23 24 24 24 24 23 23 23 23 22 21 20 19 18 18 18 17
34 36 35 35 34 30 29 31 28 25 32 36 34 32 30 26 24 24 22 23 24 22 23 24 23 21 17 15 13 13 13 13 12 11 11 9 10 12 14 17 18 19 21 22 24 25 25 29 33 34 33 31 28 27 26 25 23 23 23 22 21 22 22 22 23 24 23 22 22 22 22 23 23 24 24 24 24 24 22 21 21 20 20 20 19 19
33 34 35 36 32 25 25 29 29 27 31 34 34 34 32 28 28 27 23 22 23 24 25 24 23 22 18 15 14 14 15 15 14 13 12 10 11 12 14 17 19 21 22 22 24 25 24 26 29 32 35 34 32 30 28 26 24 23 23 23 23 23 24 24 25 26 25 25 24 24 23 23 24 24 24 24 24 24 23 22 22 22 22 21 20 20
33 34 35 36 31 26 28 33 32 29 29 31 34 35 33 31 32 31 26 23 24 25 26 27 26 24 20 17 15 14 15 17 17 16 14 13 13 13 13 15 17 17 18 19 21 24 25 25 27 30 34 35 34 33 31 29 27 26 25 25 25 25 24 24 24 25 26 27 28 27 27 25 24 24 24 25 25 25 24 23 23 23 23 23 23 22
31 37 40 38 29 25 31 37 35 31 29 30 35 38 37 34 34 33 29 27 27 27 27 29 29 27 24 20 18 16 16 18 19 17 15 15 16 16 15 16 17 17 16 17 20 23 25 27 29 32 34 34 34 35 34 33 31 28 28 29 28 25 24 23 24 26 29 30 28 27 26 25 24 24 25 26 26 26 26 25 25 25 24 25 25 25
26 34 42 42 32 26 29 36 37 34 30 31 34 36 37 36 32 31 32 29 29 29 30 30 30 28 26 23 21 19 18 19 19 18 16 16 18 19 18 18 19 18 15 15 17 19 22 26 30 32 32 34 35 35 34 34 33 30 29 29 28 25 25 26 27 29 31 29 26 25 26 26 25 25 25 26 26 27 27 27 26 25 26 26 27 26
21 27 35 38 33 29 30 33 37 36 32 32 32 27 28 32 30 28 30 29 29 30 31 32 32 31 28 25 22 21 21 20 20 19 18 18 19 21 21 21 20 19 18 18 17 17 18 22 28 31 33 35 35 33 32 32 32 31 30 28 28 29 28 28 28 29 30 28 26 26 27 28 27 27 26 26 27 28 28 28 27 25 26 27 27 26
17 21 27 31 31 32 34 34 36 36 33 35 35 25 22 29 31 29 29 29 30 31 32 33 34 33 31 29 27 25 24 22 20 19 19 19 20 21 22 23 23 21 20 19 18 16 16 17 19 24 29 32 31 30 32 32 31 32 31 28 27 30 29 28 28 29 31 31 30 29 30 31 30 29 27 28 30 31 30 29 28 27 27 27 27 27
16 18 22 27 31 36 38 38 39 39 37 37 38 32 24 27 30 31 31 30 31 32 33 33 34 34 33 33 31 29 28 26 23 21 20 19 19 20 21 22 23 22 21 20 18 16 16 15 13 15 19 23 24 25 28 29 29 28 27 23 22 24 25 25 26 27 30 34 35 34 34 33 30 28 28 28 30 33 33 32 31 30 30 29 28 28
16 18 20 24 30 37 40 40 40 42 42 41 41 38 30 26 28 29 31 32 33 33 34 34 34 35 35 34 32 29 28 27 25 24 23 21 20 20 20 20 20 19 17 18 19 19 17 16 16 17 18 19 19 20 22 23 23 22 21 20 19 20 22 23 23 23 25 29 33 35 36 34 31 29 29 30 32 35 37 36 35 34 33 31 31 30
16 18 20 23 30 36 40 40 40 41 43 43 43 41 36 30 27 27 29 32 34 34 35 35 35 35 35 34 31 29 28 26 25 25 26 24 23 22 22 21 20 19 17 16 18 20 19 18 18 20 21 22 23 24 24 24 23 22 21 21 20 21 22 22 23 23 22 22 24 28 30 30 28 25 27 30 34 39 40 38 37 37 34 33 34 33
15 17 19 23 29 35 38 40 40 41 42 41 40 40 38 33 29 28 28 30 33 35 36 36 36 36 35 33 32 30 30 29 27 27 27 27 25 25 24 23 22 23 23 21 20 19 20 21 20 19 20 22 24 24 24 23 22 22 21 21 20 21 22 22 23 23 22 21 21 21 23 25 24 23 24 26 29 35 40 40 38 37 36 35 36 35
15 17 18 21 26 32 36 38 38 37 39 39 38 39 40 37 32 30 29 29 31 33 35 36 37 37 37 36 34 32 31 30 29 29 29 28 27 27 26 26 25 25 25 25 24 22 20 21 22 20 18 20 22 24 23 21 20 21 22 22 21 20 20 20 21 22 22 22 22 22 22 23 23 23 23 23 22 23 29 33 34 34 34 36 36 35
14 16 18 20 23 27 32 36 35 34 33 34 34 35 37 36 34 33 32 31 30 31 32 34 35 36 37 38 38 37 35 33 32 32 31 29 27 27 28 27 27 26 25 25 27 26 24 24 25 25 25 25 26 27 27 25 23 24 26 25 23 23 22 21 22 24 25 23 23 24 23 23 23 23 22 23 23 22 22 22 23 25 28 31 33 34
11 13 16 18 21 23 26 29 31 32 32 32 32 31 31 32 32 31 32 32 31 30 30 30 32 34 35 36 37 37 37 36 35 35 34 31 27 25 26 27 27 27 26 25 26 26 27 28 30 32 33 32 30 30 32 32 30 29 30 30 29 28 29 28 28 29 29 28 28 28 28 27 27 27 26 26 27 26 25 24 23 22 23 27 30 31
10 10 12 15 18 20 21 22 23 26 29 31 32 32 32 31 30 28 28 29 29 29 28 28 29 31 33 34 35 35 35 34 34 34 35 33 29 26 25 26 26 26 25 24 23 23 23 24 26 29 32 33 33 33 33 34 32 31 31 32 31 30 31 32 32 33 32 31 30 31 31 31 30 29 29 29 28 26 25 26 26 25 23 24 27 26
9 10 10 12 14 16 18 19 19 20 21 24 28 31 33 33 32 29 27 26 26 27 27 27 27 28 30 31 33 33 33 32 31 32 33 33 32 29 27 27 27 27 26 25 24 23 23 22 23 25 28 31 33 33 32 31 31 31 32 32 33 33 33 33 33 34 33 33 32 32 33 32 30 29 30 31 30 29 28 27 28 28 27 27 29 28
8 9 10 12 13 13 14 15 16 17 17 18 20 24 27 30 32 32 29 26 25 25 25 25 26 27 28 29 30 31 32 32 31 31 31 32 32 31 30 28 28 28 29 30 30 29 29 28 27 27 28 29 31 32 32 31 31 31 33 34 35 36 36 35 35 35 34 33 32 32 33 33 31 30 32 33 32 31 31 31 31 31 31 31 32 33
6 8 9 11 12 13 13 14 14 15 16 16 16 18 19 22 26 29 29 27 25 24 24 24 24 24 26 26 27 28 29 30 30 30 31 32 33 33 32 31 30 29 29 31 33 33 33 31 30 30 30 31 32 33 33 34 34 35 35 35 36 37 37 37 37 36 35 34 33 32 33 33 32 32 33 35 34 32 31 31 31 32 33 33 34 34
8 8 9 10 11 11 12 13 14 14 14 15 16 16 16 17 19 21 24 25 25 24 23 22 22 22 23 24 24 25 26 26 27 28 29 30 32 33 33 33 33 32 30 30 31 32 33 33 31 30 30 31 32 33 34 35 36 37 37 37 37 37 37 37 37 36 36 36 35 34 33 34 33 33 34 35 35 35 34 33 32 33 34 34 33 33
9 8 9 9 9 10 10 11 11 12 13 14 15 15 15 16 16 17 18 21 22 23 22 22 21 21 21 21 22 23 23 24 24 25 26 27 29 31 32 32 33 33 33 32 31 30 31 33 33 33 32 32 33 33 34 35 35 36 37 38 38 38 38 37 37 37 37 37 38 37 36 36 36 36 36 37 36 36 35 36 35 35 35 35 35 35
8 7 8 9 9 10 10 10 10 11 11 12 13 13 14 15 15 16 16 17 19 20 21 22 22 21 21 21 21 22 22 22 22 23 24 25 26 27 29 30 32 33 34 34 33 32 31 31 32 33 34 34 33 34 34 35 36 36 37 38 39 39 39 39 39 39 38 38 39 39 40 41 41 41 41 41 40 38 37 37 37 37 37 37 37 37
Wind_Direction
215 213 212 212 209 206 209 211 209 208 209 211 217 223 227 223 220 222 219 222 245 231 211 214 217 203 191 192 192 193 196 194 193 193 192 190 188 184 180 181 183 173 156 152 151 150 156 153 141 132 125 123 122 124 128 125 118 114 111 111 113 114 116 116 112 110 113 118 119 120 121 121 120 118 117 118 119 119 118 117 115 115 114 113 113 111
213 210 207 207 205 203 207 212 210 208 206 206 212 221 224 223 224 228 230 233 250 237 210 212 217 201 189 193 196 198 195 190 191 192 192 190 188 185 180 180 185 176 161 157 156 151 159 160 148 137 126 123 123 124 128 131 128 124 120 117 116 116 117 117 113 111 116 120 121 122 122 122 121 120 119 119 119 118 117 116 115 115 113 113 112 111
210 207 204 203 202 203 207 210 209 209 207 205 209 215 217 221 225 225 230 236 247 246 221 213 214 200 189 196 200 199 195 189 189 191 192 190 188 187 181 177 181 177 165 162 162 157 159 163 155 143 130 127 127 126 129 130 131 131 129 126 123 120 120 120 116 114 118 123 124 124 123 122 122 121 120 120 120 119 118 118 117 116 115 113 112 110
208 205 204 202 201 203 209 210 207 207 207 205 209 213 213 218 225 223 225 232 242 248 228 211 210 202 193 198 202 199 196 192 191 192 193 191 187 187 183 176 175 176 170 166 168 163 158 160 161 151 137 133 133 131 130 129 131 134 133 132 128 124 123 123 119 117 121 127 128 127 126 125 123 122 122 121 121 121 120 120 118 117 115 112 109 105
203 203 202 200 201 203 210 212 207 206 208 205 207 212 214 220 225 224 225 228 232 248 232 212 210 204 197 199 201 199 198 195 194 193 195 196 193 190 185 179 176 178 175 167 170 172 163 161 165 157 143 138 138 135 132 129 130 133 134 134 131 129 127 126 124 121 124 130 132 131 130 128 126 125 125 124 124 124 123 121 119 116 113 109 105 102
198 201 199 196 197 203 211 213 208 206 208 205 206 210 216 223 226 226 229 232 234 249 249 222 215 206 199 200 199 198 200 199 197 196 197 198 198 194 188 184 181 182 181 171 173 179 168 163 166 159 149 145 144 139 136 132 129 131 133 135 134 133 130 130 129 126 128 133 134 133 133 132 131 129 128 128 128 128 126 124 121 118 114 111 108 105
195 198 199 196 192 197 209 212 209 207 204 199 204 212 217 224 226 223 226 234 238 244 260 241 219 207 199 199 199 199 203 203 200 199 199 198 200 198 192 192 187 184 186 177 176 183 173 166 169 163 156 153 150 145 141 137 133 130 132 135 136 136 136 135 135 132 132 137 138 136 136 135 134 134 134 134 134 133 132 130 127 123 121 117 114 112
189 194 199 197 188 190 204 209 209 210 203 193 201 213 218 222 222 221 224 231 237 239 252 265 229 212 203 199 200 202 204 205 202 200 201 198 198 200 197 198 193 186 188 182 177 186 182 173 174 168 161 159 157 154 149 142 137 133 131 133 137 140 140 139 141 140 137 140 143 143 141 140 140 139 139 140 140 139 138 136 133 130 128 125 122 117
178 189 198 198 192 188 198 207 209 210 205 197 202 214 219 223 224 222 225 231 236 236 243 259 244 221 209 204 204 203 203 207 204 200 201 199 196 198 200 202 199 192 191 188 180 184 187 180 178 174 165 164 163 160 155 147 141 138 134 133 137 141 142 143 145 147 145 145 147 148 147 147 147 144 144 146 145 143 143 141 138 135 132 130 124 115
170 177 186 193 194 187 189 204 209 210 207 202 206 214 218 222 222 223 227 232 235 235 237 242 245 232 215 211 210 207 205 208 207 201 200 199 196 197 199 202 202 198 196 194 186 184 188 184 179 177 171 170 169 163 158 153 147 144 139 135 136 140 144 146 148 151 152 151 151 152 152 152 153 150 149 150 149 148 148 146 142 138 136 132 123 114
171 170 173 180 186 181 182 196 204 207 204 201 203 205 210 214 213 219 227 231 234 235 236 239 243 244 229 219 217 215 212 210 209 205 199 198 198 197 199 200 201 201 200 198 191 187 189 187 180 176 174 174 175 168 162 159 154 149 145 141 138 140 144 148 151 153 156 158 158 158 158 159 159 157 155 156 155 155 155 152 149 145 142 139 132 125
165 163 167 171 177 177 181 190 197 202 201 200 201 199 202 209 207 214 224 227 231 232 234 239 244 243 237 230 222 219 218 214 210 207 200 198 200 199 200 199 199 201 200 198 194 189 190 190 183 177 175 175 178 176 169 164 161 157 154 149 144 143 145 149 153 157 160 165 166 166 167 168 167 166 165 164 163 162 161 160 158 152 149 150 146 136
156 159 163 169 178 181 185 190 194 196 198 199 201 202 205 207 207 212 218 220 223 223 224 230 234 232 229 231 223 217 218 215 210 206 201 198 199 201 201 199 198 201 200 196 194 190 186 187 185 183 179 176 180 182 177 173 169 164 162 159 154 151 150 152 154 158 164 168 171 173 176 176 174 175 177 176 174 172 170 169 166 158 153 153 148 136
158 164 164 166 182 191 191 193 196 195 194 195 198 205 208 203 203 211 213 211 217 220 219 222 226 223 222 226 223 220 220 214 211 209 202 196 197 201 202 200 198 200 201 196 193 190 184 183 184 186 184 179 181 185 184 183 178 171 169 167 164 161 159 158 157 159 164 168 171 175 180 181 178 180 184 183 181 180 180 179 173 163 157 153 145 133
161 169 168 166 184 201 197 195 200 199 193 191 194 203 205 199 199 209 212 208 215 224 221 221 227 224 221 220 216 221 224 214 211 210 204 196 197 203 204 203 199 197 199 197 194 191 185 183 183 185 188 182 181 187 188 188 186 179 175 174 173 170 168 167 165 165 166 169 171 173 177 180 179 182 185 183 182 182 184 186 180 171 163 156 150 140
157 168 169 164 178 205 204 196 198 198 193 189 191 197 199 198 204 212 215 213 218 227 223 221 225 225 223 219 209 213 222 210 206 206 204 197 196 203 206 205 201 198 197 197 195 191 187 186 183 183 189 186 182 188 191 190 189 185 181 180 180 177 175 175 174 173 173 173 174 173 174 177 177 179 182 181 179 180 182 184 183 179 173 166 162 156
156 157 163 161 169 202 206 201 197 198 196 192 191 196 198 197 206 214 216 216 215 213 212 217 225 226 226 227 221 212 209 204 201 205 208 201 196 201 204 203 201 198 196 196 195 191 188 188 186 185 190 190 187 190 193 194 192 189 186 183 183 184 183 184 182 179 180 180 181 180 177 178 177 177 180 181 180 178 179 181 184 185 183 180 173 165
165 159 163 162 164 189 201 203 201 200 201 199 197 201 202 200 204 212 216 216 211 206 203 212 227 228 227 231 232 224 216 218 215 211 211 206 200 200 201 201 200 197 196 195 195 194 190 189 189 188 190 193 193 192 194 197 194 193 192 187 186 189 190 192 190 186 186 186 187 189 186 185 185 186 186 188 188 186 185 186 189 193 194 189 180 173
172 171 169 162 162 191 206 205 200 192 193 202 205 206 203 198 204 213 218 221 221 225 231 242 250 241 238 234 233 237 237 240 237 220 210 206 203 200 199 198 197 197 195 194 197 201 197 192 191 191 192 195 198 198 197 198 198 196 197 194 191 192 194 198 199 197 196 195 193 195 194 193 194 197 198 198 201 202 198 197 198 202 204 199 190 185
176 177 173 169 170 197 209 201 191 178 180 202 211 212 208 203 208 212 217 222 226 235 241 246 256 253 248 240 234 242 247 262 254 222 205 200 200 201 200 197 195 196 195 196 200 204 202 198 195 196 196 196 200 204 200 199 202 200 200 200 197 194 195 199 204 205 205 205 203 201 201 200 200 203 204 205 210 213 213 211 208 207 209 207 201 194
177 175 174 177 175 181 192 195 188 174 173 195 208 216 221 215 211 211 218 225 226 234 238 234 239 262 269 247 243 263 263 295 270 207 193 191 195 200 201 198 196 196 197 200 203 205 205 203 202 201 200 199 201 207 206 202 203 204 204 205 203 200 199 200 203 207 209 212 212 210 208 206 206 208 208 208 212 215 218 219 216 211 211 210 206 202
169 168 169 169 170 178 179 188 200 184 173 189 206 216 218 208 199 201 216 227 225 228 234 231 234 261 279 254 241 281 292 338 6 180 182 184 191 199 202 203 202 200 200 203 206 208 208 206 207 208 206 203 204 210 212 208 207 207 208 208 208 208 206 204 204 206 210 214 216 217 215 212 211 213 214 214 216 218 218 220 219 216 215 213 210 207
165 164 162 158 166 177 169 175 204 196 177 185 198 202 205 207 209 208 215 230 229 226 231 236 239 246 265 274 260 277 247 358 76 158 177 186 194 200 204 208 209 205 203 203 205 209 212 209 209 212 211 207 206 211 214 213 211 211 212 211 211 212 212 211 209 208 211 216 219 220 220 218 215 215 216 218 220 222 222 222 222 221 220 217 215 212
167 167 162 156 164 171 166 178 198 194 179 181 191 201 209 219 230 225 225 236 238 231 224 222 227 229 241 277 268 235 199 182 140 152 174 189 199 203 206 211 213 210 207 206 205 206 211 214 214 215 216 212 209 213 216 215 212 213 215 214 214 215 215 215 214 213 213 217 221 223 223 222 220 219 219 221 222 224 225 226 227 226 224 220 218 218
169 167 163 159 165 166 164 175 186 192 191 189 193 202 204 203 207 211 221 231 238 241 226 212 218 227 219 214 223 210 191 180 176 176 174 182 198 211 219 220 216 212 209 208 208 205 207 215 218 218 220 219 215 215 218 218 215 214 216 217 217 218 219 219 217 216 217 219 222 225 227 227 226 223 223 224 225 226 227 228 229 230 228 225 224 223
166 161 161 164 170 172 167 167 174 189 197 198 201 201 199 200 205 210 218 228 240 245 232 208 210 220 205 192 203 208 191 167 167 194 191 189 203 224 239 233 219 212 209 208 210 208 206 213 219 220 222 224 222 219 220 221 218 214 215 218 219 220 221 222 220 219 220 221 223 226 229 232 233 231 229 228 229 230 231 232 232 233 231 229 229 229
164 159 163 168 174 176 170 167 173 184 190 195 197 196 195 199 202 209 214 217 225 230 224 209 204 212 207 195 193 197 186 157 148 194 201 206 207 214 241 234 214 207 206 208 212 211 208 211 217 220 221 224 227 225 223 224 222 218 216 218 220 221 222 223 223 223 223 224 225 227 229 232 235 237 236 235 235 235 237 237 237 239 238 235 234 233
165 162 165 166 173 179 176 174 181 185 187 189 185 183 188 191 191 199 207 209 213 216 218 219 214 212 211 203 194 189 187 181 187 196 199 205 209 208 224 218 205 201 202 207 212 213 212 213 216 218 220 223 227 228 227 228 227 223 220 219 219 220 222 224 225 224 224 226 227 228 230 232 235 238 240 240 241 241 242 244 243 243 244 244 242 239
168 165 165 164 170 177 178 179 182 186 187 186 179 181 189 193 194 198 202 205 211 212 213 218 218 215 213 213 209 205 213 222 216 210 206 205 209 206 192 180 190 197 202 206 211 216 217 217 217 219 221 224 225 227 227 228 229 228 226 224 222 221 221 224 226 226 226 227 228 229 229 231 233 236 239 240 242 242 244 247 248 248 249 249 249 249
172 166 167 169 168 171 176 178 181 185 186 182 179 185 191 195 201 205 204 206 210 213 216 217 218 219 218 220 223 223 229 232 228 227 223 214 206 201 194 184 184 194 202 206 212 217 221 223 221 220 222 225 228 228 227 227 227 227 227 227 226 222 220 219 222 226 226 226 229 231 231 232 232 234 237 238 240 241 243 246 249 252 254 254 255 257
182 174 175 175 170 172 178 179 180 181 181 182 183 187 190 193 201 203 202 207 211 214 220 221 221 223 223 224 228 230 233 231 226 228 228 221 207 195 197 198 194 199 207 210 213 217 222 225 224 221 220 223 227 229 226 225 224 225 226 227 227 225 223 220 220 221 220 220 225 230 233 234 233 232 233 235 237 238 241 244 248 251 253 256 259 261
201 190 184 179 178 185 183 179 181 180 180 186 188 187 190 195 200 197 194 205 213 215 222 224 224 226 225 222 223 228 233 233 232 232 231 229 219 206 206 206 201 202 210 215 218 219 223 226 225 224 222 221 223 226 225 224 223 224 227 228 226 225 226 226 225 223 220 218 219 223 226 229 231 232 233 234 235 235 235 237 241 245 247 248 250 253
213 207 198 188 188 197 188 180 184 184 184 190 190 188 191 195 197 194 192 201 211 216 223 227 227 227 225 221 219 223 228 229 231 234 233 232 230 223 220 218 215 214 215 220 225 225 226 226 226 228 227 223 223 225 226 225 224 224 225 226 225 225 226 229 232 234 233 227 222 221 222 224 227 231 233 234 234 234 233 232 234 238 242 243 243 243
211 214 213 205 200 204 194 185 187 186 183 189 193 193 195 195 197 200 202 207 213 218 225 230 231 231 230 226 219 217 222 225 227 231 231 227 226 227 227 230 238 241 230 225 228 228 227 226 225 227 229 226 225 226 224 224 225 224 222 221 223 227 228 228 231 237 242 242 236 231 229 230 232 233 236 238 238 237 235 233 232 234 238 242 243 242
205 210 215 214 211 214 204 190 190 190 185 188 194 198 200 197 198 202 206 211 216 219 224 230 233 233 232 228 219 215 221 225 226 231 232 226 223 226 229 231 239 246 241 233 232 229 226 224 223 224 222 221 225 228 225 223 225 224 221 217 221 230 234 230 229 234 240 243 243 242 240 239 239 239 239 242 245 245 243 240 236 235 237 240 243 244
202 206 214 217 217 218 213 201 196 197 195 194 196 198 197 193 192 198 204 210 214 216 220 225 230 234 234 230 220 215 220 225 227 231 233 233 231 231 231 230 231 236 240 242 243 238 231 225 222 221 217 216 222 227 225 224 224 223 221 220 223 231 235 234 233 236 241 241 240 241 239 238 242 246 246 245 246 247 249 249 246 244 243 245 245 245
204 202 210 216 217 216 216 212 207 205 206 206 207 207 195 188 190 198 205 212 216 217 219 222 228 234 238 234 227 222 223 228 231 230 229 231 234 234 233 231 230 232 237 243 245 243 239 232 222 215 213 215 222 226 226 225 225 226 229 231 230 231 235 238 238 239 243 243 240 235 232 237 246 248 244 242 243 246 249 250 251 250 250 251 250 247
207 206 206 209 213 214 216 218 215 213 215 216 217 219 208 192 194 201 206 213 219 222 223 225 228 234 239 239 236 233 232 232 233 232 231 232 233 233 235 236 237 237 239 242 243 238 231 226 216 207 208 214 222 226 225 223 223 226 230 231 230 230 233 237 240 241 242 244 242 237 235 241 247 242 234 233 238 245 249 249 249 249 249 251 252 251
202 207 206 204 208 211 213 215 215 214 217 220 223 224 219 206 204 207 210 215 219 223 227 229 230 234 239 241 241 239 237 237 236 236 238 242 242 238 237 241 244 244 241 242 243 239 232 227 223 218 215 216 219 220 218 216 216 219 221 221 226 233 236 238 241 246 248 248 246 241 239 242 245 242 239 238 237 243 249 249 248 247 247 250 251 251
202 206 206 204 206 209 210 212 213 213 215 219 222 225 224 220 216 215 217 218 220 224 229 233 235 237 239 241 240 238 238 240 239 238 239 243 248 247 245 246 247 244 242 244 243 239 236 237 237 231 227 227 227 226 225 224 224 224 224 224 227 233 238 241 244 248 251 250 246 241 238 239 243 246 247 246 242 241 243 246 247 246 247 250 253 253
206 207 207 206 208 210 210 212 214 215 217 220 222 224 226 227 227 225 224 223 224 226 230 235 239 241 242 243 242 241 242 242 242 241 239 239 245 251 251 249 247 244 244 246 243 237 236 239 239 232 226 225 227 227 228 231 231 229 230 230 229 229 235 242 247 249 249 246 242 239 236 238 243 248 251 254 250 242 238 241 244 245 245 248 252 254
207 206 207 208 210 212 213 212 213 215 218 221 223 225 228 231 234 234 230 227 228 230 233 236 239 242 244 246 247 249 249 246 247 250 249 247 248 252 252 251 251 248 246 243 239 235 234 232 226 220 221 229 234 233 232 232 232 234 236 233 226 226 236 247 251 248 247 248 249 248 247 249 252 253 256 263 266 252 239 236 239 241 243 247 252 255
211 209 210 210 212 215 217 218 217 216 217 219 221 224 227 231 234 235 233 232 233 234 235 237 238 240 242 244 247 250 251 250 250 253 256 256 255 254 253 254 252 250 247 243 240 237 234 230 228 233 244 251 249 243 239 239 242 246 248 244 235 234 243 252 253 248 246 251 256 255 255 258 257 255 258 263 267 266 260 252 246 245 246 249 253 257
219 217 217 215 215 216 219 223 224 225 225 224 223 224 226 229 232 234 234 235 237 237 237 238 238 239 240 242 245 248 250 250 250 251 253 254 251 249 249 249 248 248 246 245 246 246 244 242 242 248 255 258 253 246 245 249 253 256 256 255 252 250 250 253 256 256 252 252 255 255 255 256 254 254 259 264 265 268 272 271 266 260 255 253 252 253
227 229 227 222 219 218 219 222 225 227 229 230 230 231 232 232 233 235 236 238 239 238 238 238 238 238 239 241 243 246 248 249 249 248 248 248 245 241 238 237 239 243 243 241 242 245 248 248 245 247 251 255 254 252 251 252 255 256 255 256 256 256 255 254 256 257 256 253 252 254 256 258 258 259 261 263 264 264 264 264 263 260 256 253 249 245
230 232 232 229 226 224 223 223 224 225 228 231 233 234 236 236 235 235 238 240 241 240 239 239 239 240 240 241 243 244 246 247 247 246 246 246 245 243 238 233 233 236 238 238 239 242 246 250 250 246 245 248 251 254 255 255 256 255 256 257 258 259 259 258 257 257 258 257 255 253 253 255 259 261 261 259 258 255 252 251 253 253 252 250 249 248
233 231 228 228 229 227 226 227 226 224 225 229 233 236 237 238 237 237 239 242 244 244 241 239 240 241 242 242 243 244 246 246 247 247 246 246 246 247 246 243 239 236 237 239 242 245 249 253 256 255 252 250 250 253 256 258 259 259 258 259 260 260 261 260 260 259 259 259 258 257 255 254 255 259 260 259 257 253 250 249 250 251 253 253 254 258
231 229 227 227 228 228 227 227 228 227 225 226 230 234 237 239 239 239 240 242 246 249 247 244 243 244 244 245 245 246 247 247 248 249 249 248 248 249 251 251 250 247 244 242 243 247 251 254 256 257 256 255 254 255 257 260 261 263 263 262 261 261 261 261 261 261 259 258 257 255 253 253 253 255 256 256 254 252 251 251 251 251 254 257 261 265
226 225 227 228 228 228 228 228 230 232 232 231 231 232 234 237 238 239 239 241 244 249 250 250 249 249 248 249 249 249 249 249 250 250 251 251 251 251 252 253 255 255 255 252 249 250 252 254 255 255 256 257 257 257 257 259 260 262 263 263 263 262 262 261 261 261 260 258 255 252 251 250 248 248 250 253 254 252 250 250 251 252 255 258 262 266
234 230 228 229 228 227 227 227 228 230 233 236 238 238 237 237 237 237 237 238 241 246 250 253 253 253 252 252 253 253 253 252 252 253 253 253 253 253 253 254 255 257 258 259 258 255 254 255 256 257 257 257 257 258 257 257 257 259 260 262 263 264 264 263 261 260 258 256 254 252 251 249 247 245 245 249 253 255 255 255 255 257 259 260 262 264
238 232 229 229 227 225 225 225 226 227 229 233 236 238 239 240 240 238 237 237 240 244 249 252 254 255 255 255 255 255 255 255 254 254 254 253 253 253 254 254 256 257 258 259 261 260 258 257 256 258 259 258 258 257 257 256 256 256 256 258 260 263 264 265 264 263 260 257 254 252 250 250 249 248 248 251 254 256 257 258 259 260 262 262 262 262